Date String (YYYY-MM-DD hh:mm:ss) UTC,Instrument flags,absolute air pressure of the measurement (hPa),sample flow rate (lpm),inlet stack bypass flow (lpm),air temperature of the measurement (°C),ambient temperature measured by the external sensor (°C),aerosol sample conditioner tube jacket temperature (°C),OPC LED temperature (°C),internal box temperature (°C),relative humidity of the measurement (%),span deviation,mass concentration of particles derived from Lorenz-Mie calculation of OPC scattering (μg/m³),mass concentration of particles derived from Lorenz-Mie calculation of OPC scattering (μg/m³),mass concentration of particles derived from Lorenz-Mie calculation of OPC scattering (μg/m³)
DateTimeUTC,F1_M11,P_M11,Q1_M11,Q2_M11,T1_M11,T2_M11,T3_M11,T4_M11,T5_M11,U1_M11,ZSPAN_M11,X0_M11,X2_M11,X1_M11
2024-03-12 16:00:00,SystemResetWarning,0824.7,5.00,000.00,020.2,019.5,000.0,028.6,021.9,13.7,0000.0,0011.76,0003.22,0001.42
2024-03-12 16:01:00,SystemResetWarning,0824.6,4.99,000.00,020.2,019.5,000.0,028.6,021.9,13.3,0000.0,0012.02,0003.18,0001.44
2024-03-12 16:02:00,SystemResetWarning,0824.6,4.99,000.00,020.2,019.5,000.0,028.6,021.9,13.4,0000.0,0011.84,0003.14,0001.45
2024-03-12 16:03:00,SystemResetWarning,0824.7,5.00,000.00,020.2,019.5,000.0,028.6,021.9,13.3,0000.0,0011.67,0003.15,0001.43
2024-03-12 16:04:00,SystemResetWarning,0824.7,5.01,000.00,020.2,019.5,000.0,028.6,021.9,13.2,0000.0,0010.94,0003.15,0001.41
2024-03-12 16:05:00,SystemResetWarning,0824.6,5.01,000.00,020.2,019.5,000.0,028.6,021.9,13.3,0000.0,0010.88,0003.16,0001.40
2024-03-12 16:06:00,SystemResetWarning,0824.6,4.99,000.00,020.2,019.5,000.0,028.6,021.9,13.0,0000.0,0011.18,0003.19,0001.40
2024-03-12 16:07:00,SystemResetWarning,0824.6,4.99,000.00,020.2,019.5,000.0,028.6,021.9,13.2,0000.0,0010.36,0003.13,0001.37
2024-03-12 16:08:00,SystemResetWarning,0824.7,5.00,000.00,020.2,019.5,000.0,028.6,021.8,13.2,0000.0,0010.22,0003.11,0001.35
2024-03-12 16:09:00,SystemResetWarning,0824.6,5.00,000.00,020.2,019.5,000.0,028.6,021.8,13.3,0000.0,0010.23,0003.11,0001.33
2024-03-12 16:10:00,SystemResetWarning,0824.7,5.01,000.00,020.2,019.5,000.0,028.5,021.8,13.2,0000.0,0009.90,0003.01,0001.32
2024-03-12 16:11:00,SystemResetWarning,0824.7,5.01,000.00,020.2,019.5,000.0,028.5,021.9,13.2,0000.0,0008.21,0002.93,0001.31
2024-03-12 16:12:00,SystemResetWarning,0824.7,5.00,000.00,020.2,019.5,000.0,028.5,021.9,13.3,0000.0,0007.86,0002.94,0001.32
2024-03-12 16:13:00,SystemResetWarning,0824.5,5.00,000.00,020.2,019.5,000.0,028.5,021.9,13.3,0000.0,0007.85,0002.88,0001.30
2024-03-12 16:14:00,SystemResetWarning,0824.4,4.99,000.00,020.2,019.5,000.0,028.5,021.9,13.1,0000.0,0007.86,0002.86,0001.31
2024-03-12 16:15:00,SystemResetWarning,0824.5,5.00,000.00,020.2,019.5,000.0,028.5,021.9,13.1,0000.0,0007.95,0002.86,0001.32
2024-03-12 16:16:00,SystemResetWarning,0824.5,5.01,000.00,020.2,019.5,000.0,028.5,021.9,13.3,0000.0,0007.75,0002.82,0001.32
2024-03-12 16:17:00,SystemResetWarning,0824.5,5.00,000.00,020.2,019.5,000.0,028.5,021.9,13.4,0000.0,0007.40,0002.76,0001.31
2024-03-12 16:18:00,SystemResetWarning,0824.5,5.00,000.00,020.2,019.6,000.0,028.5,021.9,13.2,0000.0,0007.29,0002.73,0001.32
2024-03-12 16:19:00,SystemResetWarning,0824.5,4.99,000.00,020.2,019.6,000.0,028.5,021.9,13.9,0000.0,0007.35,0002.74,0001.32
2024-03-12 16:20:00,SystemResetWarning,0824.5,4.99,000.00,020.2,019.6,000.0,028.5,021.9,14.5,0000.0,0007.43,0002.77,0001.32
2024-03-12 16:21:00,SystemResetWarning,0824.5,5.00,000.00,020.2,019.6,000.0,028.5,021.9,14.6,0000.0,0007.45,0002.80,0001.33
2024-03-12 16:22:00,SystemResetWarning,0824.5,5.02,000.00,020.2,019.6,000.0,028.6,021.9,14.6,0000.0,0007.18,0002.79,0001.35
2024-03-12 16:23:00,SystemResetWarning,0824.5,5.00,000.00,020.2,019.6,000.0,028.6,021.9,14.2,0000.0,0006.89,0002.75,0001.33
2024-03-12 16:24:00,SystemResetWarning,0824.5,4.99,000.00,020.2,019.6,000.0,028.6,021.9,13.8,0000.0,0006.94,0002.78,0001.34
2024-03-12 16:25:00,SystemResetWarning,0824.5,4.99,000.00,020.2,019.6,000.0,028.6,021.9,13.5,0000.0,0007.18,0002.76,0001.35
2024-03-12 16:26:00,SystemResetWarning,0824.5,4.99,000.00,020.2,019.6,000.0,028.6,021.9,13.5,0000.0,0007.16,0002.75,0001.35
2024-03-12 16:27:00,SystemResetWarning,0824.5,5.00,000.00,020.2,019.6,000.0,028.6,021.9,13.3,0000.0,0007.39,0002.73,0001.32
2024-03-12 16:28:00,SystemResetWarning,0824.5,5.01,000.00,020.2,019.6,000.0,028.6,021.9,13.4,0000.0,0007.21,0002.70,0001.32
2024-03-12 16:29:00,SystemResetWarning,0824.4,5.00,000.00,020.2,019.6,000.0,028.6,022.0,13.3,0000.0,0007.15,0002.68,0001.31
2024-03-12 16:30:00,SystemResetWarning,0824.5,5.01,000.00,020.2,019.6,000.0,028.6,022.0,13.3,0000.0,0007.28,0002.70,0001.31
2024-03-12 16:31:00,SystemResetWarning,0824.5,5.00,000.00,020.2,019.6,000.0,028.6,022.0,13.4,0000.0,0007.12,0002.66,0001.30
2024-03-12 16:32:00,SystemResetWarning,0824.6,4.99,000.00,020.2,019.6,000.0,028.6,022.0,13.3,0000.0,0007.07,0002.66,0001.29
2024-03-12 16:33:00,SystemResetWarning,0824.7,4.99,000.00,020.2,019.6,000.0,028.6,022.0,13.3,0000.0,0006.83,0002.58,0001.28
2024-03-12 16:34:00,SystemResetWarning,0824.7,5.00,000.00,020.2,019.6,000.0,028.6,022.0,13.4,0000.0,0007.07,0002.63,0001.28
2024-03-12 16:35:00,SystemResetWarning,0824.6,5.02,000.00,020.2,019.6,000.0,028.6,022.0,13.4,0000.0,0007.41,0002.66,0001.29
2024-03-12 16:36:00,SystemResetWarning,0824.6,4.99,000.00,020.3,019.6,000.0,028.6,022.0,13.4,0000.0,0007.20,0002.67,0001.29
2024-03-12 16:37:00,SystemResetWarning,0824.6,4.99,000.00,020.3,019.7,000.0,028.6,022.0,13.5,0000.0,0007.52,0002.81,0001.29
2024-03-12 16:38:00,SystemResetWarning,0824.6,5.00,000.00,020.3,019.7,000.0,028.6,022.0,13.4,0000.0,0007.56,0002.90,0001.32
2024-03-12 16:39:00,SystemResetWarning,0824.6,5.00,000.00,020.3,019.7,000.0,028.6,022.0,13.5,0000.0,0007.91,0002.97,0001.33
2024-03-12 16:40:00,SystemResetWarning,0824.6,5.00,000.00,020.3,019.7,000.0,028.6,022.0,13.6,0000.0,0008.10,0003.09,0001.35
2024-03-12 16:41:00,SystemResetWarning,0824.6,5.00,000.00,020.3,019.7,000.0,028.6,022.0,13.6,0000.0,0008.00,0003.10,0001.37
2024-03-12 16:42:00,SystemResetWarning,0824.6,5.01,000.00,020.3,019.7,000.0,028.6,022.0,13.6,0000.0,0008.08,0003.13,0001.37
2024-03-12 16:43:00,SystemResetWarning,0824.6,5.00,000.00,020.3,019.7,000.0,028.6,022.0,13.7,0000.0,0008.15,0003.15,0001.38
2024-03-12 16:44:00,SystemResetWarning,0824.7,5.00,000.00,020.3,019.7,000.0,028.6,022.1,13.4,0000.0,0008.29,0003.15,0001.39
2024-03-12 16:45:00,SystemResetWarning,0824.6,5.00,000.00,020.3,019.7,000.0,028.7,022.1,13.4,0000.0,0008.62,0003.19,0001.39
2024-03-12 16:46:00,SystemResetWarning,0824.5,4.99,000.00,020.3,019.8,000.0,028.7,022.1,13.5,0000.0,0008.94,0003.17,0001.38
2024-03-12 16:47:00,SystemResetWarning,0824.5,4.99,000.00,020.3,019.8,000.0,028.7,022.1,13.5,0000.0,0008.84,0003.17,0001.36
2024-03-12 16:48:00,SystemResetWarning,0824.5,5.00,000.00,020.3,019.8,000.0,028.7,022.1,13.3,0000.0,0008.82,0003.14,0001.36
2024-03-12 16:49:00,SystemResetWarning,0824.5,5.00,000.00,020.3,019.8,000.0,028.7,022.1,13.1,0000.0,0008.50,0003.00,0001.34
2024-03-12 16:50:00,SystemResetWarning,0824.6,5.00,000.00,020.3,019.8,000.0,028.7,022.1,13.2,0000.0,0008.03,0002.89,0001.33
2024-03-12 16:51:00,SystemResetWarning,0824.5,5.00,000.00,020.3,019.8,000.0,028.7,022.1,13.3,0000.0,0007.92,0002.79,0001.31
2024-03-12 16:52:00,SystemResetWarning,0824.4,5.01,000.00,020.3,019.8,000.0,028.7,022.1,13.2,0000.0,0007.93,0002.70,0001.29
2024-03-12 16:53:00,SystemResetWarning,0824.4,5.00,000.00,020.3,019.8,000.0,028.7,022.1,13.3,0000.0,0007.89,0002.63,0001.27
2024-03-12 16:54:00,SystemResetWarning,0824.4,5.00,000.00,020.3,019.7,000.0,028.7,022.1,13.4,0000.0,0007.87,0002.56,0001.28
2024-03-12 16:55:00,SystemResetWarning,0824.4,5.00,000.00,020.3,019.7,000.0,028.7,022.1,13.5,0000.0,0008.10,0002.59,0001.29
2024-03-12 16:56:00,SystemResetWarning,0824.5,4.99,000.00,020.3,019.7,000.0,028.7,022.1,13.5,0000.0,0008.12,0002.53,0001.28
2024-03-12 16:57:00,SystemResetWarning,0824.5,5.00,000.00,020.3,019.7,000.0,028.7,022.0,13.5,0000.0,0008.27,0002.54,0001.28
2024-03-12 16:58:00,SystemResetWarning,0824.5,5.00,000.00,020.3,019.7,000.0,028.7,022.0,13.5,0000.0,0008.38,0002.57,0001.29
2024-03-12 16:59:00,SystemResetWarning,0824.5,5.00,000.00,020.3,019.7,000.0,028.7,022.0,13.6,0000.0,0008.49,0002.67,0001.28
